Location: Enborne
(51.3833°N, 1.3667°W)
Time: 02:22:05
(UTC+00:00)

Cosmos 2263 Rocket - Pass Details

Date: 18 September 2020
Orbit: 822 x 850 km, 71.0° (Epoch: 30 October)

Event Time Altitude Azimuth Distance (km) Brightness Sun altitude
Rises 19:31:06 0° 214° (SW) 3,347 5.5 -12.9°
Reaches altitude 10° 19:33:31 10° 217° (SW) 2,420 4.8 -13.3°
Maximum altitude 19:39:04 74° 302° (WNW) 866 2.4 -14.1°
Drops below altitude 10° 19:44:41 10° 28° (NNE) 2,449 4.6 -14.9°
Sets 19:47:09 0° 30° (NNE) 3,391 5.3 -15.3°
